Regional Weather Roundup
Issued by NWS

Home | Current Version | Previous Version | Graphics & Text | Print | Product List | Glossary On
Versions: 1 2 3 4 5 6 7 8 9 10 11 12 13 14 15 16 17 18 19 20 21 22 23 24 25 26 27 28 29 30 31 32 33 34 35 36 37 38 39 40 41 42 43 44 45 46 47 48 49 50
000
ASUS43 KMKX 280100
RWRWI

WISCONSIN REGIONAL WEATHER ROUNDUP
NATIONAL WEATHER SERVICE MILWAUKEE/SULLIVAN WI
800 PM CDT WED JUL 27 2016

NOTE: "FAIR" INDICATES FEW OR NO CLOUDS BELOW 12,000 FEET WITH NO
SIGNIFICANT WEATHER AND/OR OBSTRUCTIONS TO VISIBILITY.

WIZ001-002-006>008-014>016-023>028-280200-
NORTHWEST WISCONSIN

CITY           SKY/WX    TMP DP  RH WIND       PRES   REMARKS
SUPERIOR ARPT  CLOUDY    62  59  90 NE9       30.02S
ASHLAND        CLOUDY    63  62  97 NE7       30.02R
HAYWARD        CLOUDY    64  62  93 NE9       30.00R
SIREN          HVY RAIN  66  64  94 NE9       29.98R
CUMBERLAND     CLOUDY    64  63  94 E6        29.98R
RICE LAKE      CLOUDY    66  64  93 E8        29.99R
CHETEK         LGT RAIN  66  65  96 E6        29.97F
LADYSMITH      LGT RAIN  65  63  93 E6        29.99F
EAU CLAIRE     LGT RAIN  68  67  96 NE12      29.93F
MENOMONIE      CLOUDY    68  68  99 N6        29.93F
NEW RICHMOND   CLOUDY    68  66  92 NE8       29.95S
OSCEOLA        PTCLDY    68  68 100 N5        29.98S
$$

WIZ003>005-009-010-017-018-280200-
NORTH CENTRAL WISCONSIN

CITY           SKY/WX    TMP DP  RH WIND       PRES   REMARKS
MANITOWISH WTR RAIN      64  64 100 NE6       30.02S
ARBOR VITAE    CLOUDY    67  65  94 NE5       30.01F
WOODRUFF       CLOUDY    67  65  94 NE5       30.01F
RHINELANDER    HVY RAIN  65  63  93 NW5       30.03R FOG
EAGLE RIVER    LGT RAIN  66  66 100 NE8       30.01F
LAND O LAKES   RAIN      66  65  94 CALM      30.04S
PHILLIPS       LGT RAIN  64  64 100 E5        29.99F
TOMAHAWK       HVY RAIN  63  62  95 CALM      30.03F
MEDFORD        RAIN      62  62 100 E3        30.01S
MERRILL        CLOUDY    63  63 100 N7        30.01R
$$

WIZ029-030-035-036-043>047-280200-
CENTRAL WISCONSIN

CITY           SKY/WX    TMP DP  RH WIND       PRES   REMARKS
WAUSAU         RAIN      67  65  93 NW12      29.99R
MOSINEE        NOT AVBL
MARSHFIELD     CLOUDY    68  63  84 NE7       29.98R
STEVENS POINT  RAIN      68  68 100 E7        29.96F
WAUPACA        LGT RAIN  76  73  91 CALM      29.96S
WAUTOMA        CLOUDY    74  72  93 CALM      29.94F
WISC RAPIDS    LGT RAIN  68  64  87 CALM      29.96F
CAMP DOUGLAS   NOT AVBL
$$

WIZ011>013-019>022-031-037>040-048>050-280200-
NORTHEAST WISCONSIN

CITY           SKY/WX    TMP DP  RH WIND       PRES   REMARKS
ANTIGO         HVY RAIN  67  64  92 W13       30.02R
SHAWANO        DRIZZLE   75  68  79 CALM      29.96F
OCONTO         CLOUDY    73  73 100 CALM      29.95R
STURGEON BAY   MOCLDY    72  68  87 N3        29.96S
GREEN BAY      MOCLDY    75  66  73 NE6       29.95S
MANITOWOC      NOT AVBL
APPLETON       MOCLDY    75  63  64 VRB5      29.94S
CLINTONVILLE   LGT RAIN  73  68  83 E3        29.95F
OSHKOSH        CLOUDY    76  67  73 CALM      29.94R
$$

WIZ032>034-041-042-053>061-280200-
SOUTHWEST WISCONSIN

CITY           SKY/WX    TMP DP  RH WIND       PRES   REMARKS
LA CROSSE      PTCLDY    80  67  64 S6        29.89F HX  82
SPARTA         MOCLDY    76  71  83 CALM      29.93F
VIROQUA        PTCLDY    75  69  80 CALM      29.94F
BOSCOBEL       CLOUDY    79  69  71 CALM      29.92F HX  81
PRAIRIE DU CHI CLOUDY    79  64  60 CALM      29.91F HX  81
PLATTEVILLE    PTCLDY    78  72  81 NW3       29.95S HX  81
$$

WIZ056-057-062-063-064-067-068-280200-
SOUTH CENTRAL WISCONSIN

CITY           SKY/WX    TMP DP  RH WIND       PRES   REMARKS
REEDSBURG      MOCLDY    79  72  80 E6        29.94R HX  82
BARABOO/DELLS  MOCLDY    76  68  76 E3        29.95S
LONE ROCK      NOT AVBL
MINERAL POINT  PTCLDY    79  70  73 CALM      29.96R HX  81
MADISON        CLOUDY    79  68  69 NE3       29.94R HX  81
MIDDLETON      CLOUDY    79  71  75 E6        29.95R HX  81
WATERTOWN      PTCLDY    76  69  77 CALM      29.94R
MONROE         CLOUDY    81  64  57 CALM      29.94R HX  82
JANESVILLE     MOCLDY    82  64  54 CALM      29.93R HX  84
$$

WIZ051-052-058>065-066-070>072-280200-
SOUTHEAST WISCONSIN

CITY           SKY/WX    TMP DP  RH WIND       PRES   REMARKS
MILWAUKEE      MOCLDY    74  67  78 NE5       29.94S
WAUKESHA       CLEAR     73  63  68 E6        29.96R
MILWAUKEE/TIMM CLEAR     75  63  64 E5        29.96R
RACINE         CLEAR     73  67  81 CALM      29.96S
BURLINGTON     PTCLDY    76  67  73 E6        29.94R
KENOSHA        PTCLDY    75  70  84 NE8       29.95R
FOND DU LAC    CLOUDY    75  69  81 CALM      29.94R
SHEBOYGAN      CLOUDY    71  67  87 SW3       29.96R
WEST BEND      PTCLDY    72  66  83 CALM      29.96R
JUNEAU         MOCLDY    75  66  74 CALM      29.96R
$$

LSZ147-162-280200-
LAKE SUPERIOR

STATION/POSITION TIME  TEMP    WIND        PRES    WAVE
                       AIR SEA DIR/SP/G            HT/PER
                 (UTC) (F)     (DEG/KT/KT) (MB)    (FT/S)
W MID LAKE BUOY  2350   62 60   90/  8/  8 1015.7R   1/ 4
DEVILS ISLAND    0000   62      50/  6/  7 1016.6F
SAXON HARBOR     0000   67      50/ 10/ 11 1015.6S
$$

LMZ867-665-643>646-280200-
LAKE MICHIGAN

STATION/POSITION TIME  TEMP    WIND        PRES    WAVE
                       AIR SEA DIR/SP/G            HT/PER
                 (UTC) (F)     (DEG/KT/KT) (MB)    (FT/S)
CHAMBERS ISLAND  0000   73     150/  1/  3 1014.2F
S GREEN BAY BUOY 0000   75 75   50/  6/  6   N/A
N MID LAKE BUOY  2350   71 71  260/  4/  6 1014.0F   0
NORTHPORT PIER   0000   75     360/  6/  7 1014.6S
SISTER BAY       0021   73        CALM       N/A
ALGOMA LAKESHORE 0013             CALM       N/A
KEWAUNEE LAKESHO 0000   67                   N/A
SHEBOYGAN LAKESH 0000   66      CALM  /  1 1014.2R
PORT WASHINGTON  0040   72      CALM  /  1 1014.9R
ATWATER BUOY     0000   65 62  310/  4/  4 1015.4F
MILWAUKEE LAKESH 0010   71      30/  6/  6   N/A
S MID LAKE BUOY  2350   76 77   70/ 10/ 12 1012.9F   0
KENOSHA   LAKESH 0000   66      10/  9/ 11 1013.2S
$$

TC  - TEMPERATURE IN CELSIUS
VSB - VISIBILITY IN STATUTE MILES
WCI - WIND CHILL INDEX
HX  - HEAT INDEX




USA.gov is the U.S. government's official web portal to all federal, state and local government web resources and services.